Location: Mauries
(43.6188°N, 0.3322°W)
Time: 19:50:44
(UTC+00:00)

Cosmos 2154 Rocket - Pass Details

Date: 14 January 2026
Orbit: 965 x 997 km, 82.9° (Epoch: 10 February)

Event Time Altitude Azimuth Distance (km) Brightness Sun altitude
Rises 05:51:27 0° 187° (S) 3,696 7.1 -17.8°
Reaches altitude 10° 05:53:58 10° 188° (S) 2,748 6.4 -17.4°
Maximum altitude 06:00:17 85° 277° (W) 998 4.0 -16.3°
Drops below altitude 10° 06:06:37 10° 7° (N) 2,746 6.3 -15.2°
Sets 06:09:08 0° 8° (N) 3,693 7.0 -14.7°
